Find OPS 2222

NORAD ID: 3334 Int'l Des: 1968-063 Owner: NRO/SAFSP Country: US operational
HEO

リアルタイム位置

3D地球を読み込み中...

OPS 2222について

説明を読み込み中...

次回通過

Passes for default location (London). Set your location on the main map for personalized predictions.

高度履歴

Loading altitude history...

軌道要素

1 3334U 68063A 26104.46635265 -.00000324 00000-0 00000+0 0 9995
2 3334 6.0824 282.8183 0895388 230.1473 334.6071 0.99253452 25491
Epoch: Apr 14, 2026 • Age: 11 hours

現在のステータス

高度 38971.2 km
速度 2.86 km/s
衛星直下点 1.43°N, 121.84°E
タイプ other

Most Searched